Location: Dannhausen
(51.8650°N, 10.1026°E)
Time: 18:45:07
(UTC+00:00)

Cosmos 1461 - Pass Details

Date: 09 April 2020
Orbit: 507 x 659 km, 65.0° (Epoch: 01 June)

Event Time Altitude Azimuth Distance (km) Brightness Sun altitude
Rises 18:55:37 0° 315° (NW) 2,877 8.0 -7.8°
Reaches altitude 10° 18:57:53 10° 311° (NW) 1,993 7.1 -8.2°
Maximum altitude 19:02:17 54° 235° (SW) 779 3.8 -8.8°
Drops below altitude 10° 19:06:50 10° 159° (SSE) 2,050 5.3 -9.4°
Enters shadow 19:07:53 - 156° (SSE) 2,459 5.7 -9.6°
